Location: Bondula
(6.3703°N, 10.6756°W)
Time: 12:58:09
(UTC+00:00)

Cosmos 1844 Rocket - Pass Details

Date: 22 October 2019
Orbit: 825 x 843 km, 71.0° (Epoch: 11 November)

Event Time Altitude Azimuth Distance (km) Brightness Sun altitude
Exits shadow 05:00:03 17° 212° (SSW) 1,999 4.4 -22.6°
Drops below altitude 10° 05:01:33 10° 201° (SSW) 2,422 5.0 -22.2°
Sets 05:04:22 0° 188° (S) 3,357 5.8 -21.5°
